Theta_e
335 342 348 350 349 350 349 349 348 347 347 350 349 349 351 348 347 346 347 347 345 343 343 341 339 339 341 341 340 341 340 341 342 342 334 334 343 345 347 347 348 348 347 347 347 346 346 345 345 345 346 346 347 347 347 346 346 346 344 344 343 339 336 337 335 332 326 325 325 325 324 324 323 320 318 317 316 316 316 315 315 316 316 316 316
331 336 346 351 348 350 350 348 347 344 345 348 347 348 350 350 348 347 348 347 346 345 344 343 343 340 340 340 340 340 338 337 338 339 337 336 343 345 348 348 348 348 348 346 348 346 346 344 345 345 345 346 347 348 346 343 344 344 344 342 343 338 334 335 334 331 327 326 320 318 318 320 320 320 316 315 316 316 316 317 316 315 313 315 315
328 333 348 346 347 349 348 347 348 347 346 347 348 349 350 348 349 350 348 347 347 347 345 344 344 345 344 342 341 340 342 343 342 340 339 337 344 345 347 348 347 347 347 346 347 346 346 345 344 345 345 346 346 346 344 343 342 342 342 339 338 339 335 335 332 335 332 330 326 320 315 315 317 316 318 316 316 317 316 314 314 313 312 313 314
326 332 340 341 344 346 347 346 347 347 347 347 348 349 347 347 350 349 348 347 348 349 347 348 347 346 347 346 344 343 341 344 342 338 337 339 342 345 346 348 347 346 345 345 346 345 346 345 345 345 344 347 346 345 345 342 342 341 340 340 339 334 333 332 334 336 335 328 319 320 320 319 315 314 315 317 317 315 314 313 313 312 312 312 313
321 329 339 340 340 343 345 345 347 346 346 346 346 347 347 348 349 349 349 349 350 349 349 348 346 346 346 346 345 344 345 342 340 337 337 338 340 342 343 347 347 345 345 345 345 345 346 346 346 346 346 347 347 345 344 342 342 341 340 340 339 336 332 333 334 338 336 331 327 322 318 317 320 320 317 316 316 314 314 314 314 312 312 311 310
320 325 335 340 340 343 345 345 345 346 346 348 348 348 348 348 349 349 349 350 350 351 350 348 346 343 342 340 338 338 338 338 335 332 331 331 332 339 346 345 346 345 344 345 344 345 346 346 347 347 347 346 346 346 346 344 342 341 340 340 339 339 336 332 332 336 334 332 335 331 330 322 321 319 318 314 317 317 316 314 314 313 313 312 311
321 324 328 340 341 343 345 345 346 345 346 348 349 349 349 349 348 349 348 348 351 350 351 348 346 345 343 342 341 339 338 339 340 337 338 339 342 344 344 346 345 345 345 345 345 345 346 346 348 348 347 347 346 348 346 344 342 341 341 340 339 339 337 331 332 331 330 331 332 334 332 331 327 320 317 319 312 315 316 314 314 314 313 312 310
321 323 327 336 342 342 344 346 345 345 347 347 348 350 349 348 347 347 348 348 351 351 350 349 347 345 344 343 342 341 340 340 341 343 345 343 342 343 342 343 345 344 344 344 345 345 346 346 349 349 347 348 346 346 346 346 344 343 342 341 340 339 337 334 334 328 327 328 331 330 329 328 329 327 327 322 318 314 312 316 316 316 315 315 313
323 326 327 337 342 343 345 346 346 346 346 346 348 349 348 346 346 347 348 349 351 352 350 350 349 347 345 344 342 342 343 342 342 341 341 342 342 342 342 342 342 344 344 345 346 345 345 347 348 348 348 347 345 346 347 346 344 342 340 339 338 337 336 336 332 330 330 329 328 328 328 326 326 327 326 325 320 317 316 312 313 316 317 315 315
318 323 328 337 343 344 346 347 347 347 348 349 348 347 346 346 345 345 347 349 351 351 349 350 350 348 346 345 344 342 343 343 343 340 340 342 340 342 342 341 342 342 344 345 346 346 346 348 348 348 348 348 345 346 346 346 345 342 341 341 340 337 337 334 333 332 333 332 329 329 327 326 325 324 323 323 323 322 317 314 315 312 311 313 316
315 318 322 331 341 345 346 346 348 349 349 347 344 343 344 344 345 344 346 349 351 351 351 349 349 349 347 346 345 345 344 343 342 341 340 342 340 340 340 340 341 340 343 345 346 347 348 348 348 347 347 346 345 346 346 345 344 343 342 341 340 338 335 333 332 334 333 331 331 329 327 326 325 323 322 322 322 320 318 318 319 314 313 312 314
314 315 318 324 332 342 345 346 347 345 345 344 343 341 342 343 344 344 346 349 350 351 350 350 349 348 349 347 345 345 345 343 342 341 340 340 340 340 340 340 340 340 342 342 344 346 346 346 347 347 346 346 345 346 346 345 345 344 343 341 340 339 338 335 334 333 333 332 332 331 329 330 329 326 324 325 323 321 320 319 318 316 314 313 314
313 314 316 321 328 336 342 344 344 343 343 343 342 342 342 342 343 343 345 348 349 350 350 351 350 349 348 347 347 346 345 343 343 343 343 341 341 340 339 338 339 338 340 340 342 344 344 345 345 346 345 346 345 345 345 343 345 343 341 341 341 338 336 336 333 334 333 332 331 332 330 330 329 328 328 326 326 324 323 319 319 318 312 312 312
313 314 316 320 325 332 338 343 342 342 343 342 342 343 343 342 343 343 344 347 349 349 348 349 350 350 350 347 346 345 346 346 345 343 343 342 342 340 340 339 338 338 339 341 342 343 344 346 346 346 346 345 345 344 343 341 345 340 340 340 339 339 338 337 336 335 335 335 334 331 331 330 330 330 329 327 326 324 320 319 319 316 315 312 311
311 312 315 320 325 332 336 340 342 341 341 342 343 344 343 342 342 342 343 346 348 347 347 348 348 349 349 348 347 347 346 346 346 345 345 343 342 341 341 341 340 341 340 342 344 343 343 345 346 345 346 346 344 343 340 343 342 339 339 340 339 339 338 336 335 335 333 333 334 332 331 331 331 329 329 328 327 325 323 322 321 316 313 313 309
309 311 314 318 323 327 335 340 341 341 341 342 344 345 345 344 344 344 344 347 348 349 347 347 347 348 349 349 348 347 346 346 346 346 344 344 344 344 344 344 343 343 345 343 343 343 343 344 345 344 345 345 342 341 341 341 340 339 338 338 337 337 337 337 335 335 334 334 334 334 332 330 331 329 329 328 327 326 324 325 323 319 313 310 310
311 312 313 316 319 323 329 339 340 341 342 343 344 345 345 344 344 345 345 347 349 348 347 347 346 347 347 348 348 348 347 346 344 346 345 346 346 346 346 346 346 346 345 345 344 344 344 345 345 345 344 342 342 340 341 340 339 338 336 337 337 337 337 335 334 333 334 335 334 334 332 331 330 331 330 329 328 326 325 326 324 319 318 311 309
312 313 314 315 317 319 324 333 342 341 342 344 345 344 345 345 345 345 346 346 348 347 346 346 345 346 346 345 347 348 347 346 345 344 345 345 345 346 347 345 344 344 345 344 344 343 345 344 345 344 343 342 341 340 339 339 338 336 336 335 335 336 334 334 334 333 333 334 334 333 333 330 330 330 329 331 329 327 325 325 322 321 319 314 313
311 312 312 313 316 318 322 327 335 343 343 345 347 346 346 347 347 347 347 347 348 346 346 346 346 345 345 344 345 346 348 347 345 345 344 344 345 346 346 345 346 345 345 345 344 343 345 344 344 343 342 341 340 339 339 338 337 336 335 334 335 335 332 331 332 332 332 332 331 331 331 329 329 329 329 329 329 326 323 320 320 320 319 319 316
310 311 311 313 315 318 320 325 329 338 342 343 346 346 346 348 347 347 347 348 347 346 344 344 345 344 344 346 347 346 345 346 346 344 344 344 344 345 346 347 346 345 345 345 344 343 343 342 342 341 340 340 339 339 337 336 336 335 334 334 333 331 330 329 329 329 329 329 329 328 329 328 328 326 326 324 321 320 321 318 318 318 318 319 317
312 312 311 313 315 319 320 324 327 334 341 344 345 346 345 346 345 346 346 345 344 346 344 344 344 344 345 344 345 346 346 345 345 344 344 344 345 346 346 348 346 345 345 344 343 342 342 341 341 340 339 339 338 337 336 335 333 332 333 332 332 329 328 328 328 328 327 327 327 326 326 325 325 322 320 320 319 318 320 319 318 317 316 317 316
313 315 313 313 317 321 322 322 324 328 335 342 345 346 345 344 344 346 346 344 344 345 345 344 343 343 344 344 345 347 347 345 344 344 343 343 344 345 346 346 347 346 345 343 342 342 341 341 340 339 339 338 337 336 335 334 332 331 331 331 330 328 327 327 327 325 325 324 325 324 322 322 322 318 319 318 317 316 316 315 315 315 314 315 317
316 318 317 317 318 320 320 322 324 326 330 338 343 344 344 345 345 346 345 345 346 345 345 344 343 344 344 344 346 346 346 346 344 344 343 343 343 344 344 345 344 345 344 343 342 342 341 340 340 339 338 338 337 335 335 333 332 331 330 330 329 328 326 325 324 323 322 323 322 322 321 321 320 319 319 318 318 317 315 313 314 314 314 315 314
319 320 322 323 323 323 322 321 322 323 328 333 341 344 345 346 346 346 345 345 346 345 344 344 344 344 344 344 344 346 345 345 344 343 343 344 343 343 343 344 343 344 342 343 343 341 341 340 339 338 338 337 336 335 333 333 331 330 329 328 327 326 325 325 324 322 320 321 321 320 320 320 319 318 317 316 316 316 314 313 314 314 315 315 316
316 317 319 322 323 322 321 321 320 321 325 332 336 342 344 345 346 345 346 347 346 346 344 344 342 342 343 343 344 344 344 344 344 343 343 344 344 343 343 342 343 342 342 342 341 341 340 339 338 337 337 336 334 333 332 332 331 330 329 328 327 325 325 324 323 321 320 320 320 319 319 318 317 316 317 315 314 314 311 313 312 312 312 315 315
315 317 319 321 322 323 323 323 322 321 324 329 335 339 342 345 346 347 346 346 346 345 345 343 342 341 342 342 343 344 344 344 343 342 343 343 343 343 342 342 341 341 341 341 340 339 338 337 337 337 337 336 334 332 330 329 329 328 329 328 326 324 323 322 320 320 319 319 319 318 319 317 316 316 316 314 314 313 312 312 312 311 312 314 314
316 317 318 320 323 325 325 323 324 325 327 330 335 338 339 342 345 346 346 346 345 346 344 342 342 342 341 341 341 344 343 343 343 343 343 342 342 343 342 341 341 341 340 339 339 338 337 337 337 337 336 336 334 333 331 329 328 327 327 326 324 323 321 320 319 319 319 318 319 318 318 317 316 316 315 314 314 313 312 312 313 313 312 312 309
316 317 317 319 322 326 327 326 324 325 329 331 335 339 339 341 342 345 345 346 346 345 342 341 341 340 341 340 341 343 344 343 343 343 341 341 341 341 341 341 341 340 339 339 337 337 337 337 337 336 337 335 335 332 330 328 327 327 327 325 323 322 320 319 320 318 318 318 318 318 318 317 316 316 315 315 313 311 311 312 313 313 311 310 309
313 315 317 319 322 326 329 328 325 325 328 332 335 337 339 340 342 344 345 345 346 345 342 341 340 340 340 341 342 343 343 343 341 341 341 340 339 340 340 339 339 340 339 339 338 337 335 335 335 334 334 333 332 331 330 327 326 326 326 324 323 321 320 318 318 317 318 318 317 318 317 316 316 316 313 312 312 312 313 312 312 310 308 310 309
312 314 317 318 319 324 329 330 326 325 327 331 334 335 336 339 341 344 345 346 345 343 341 340 339 340 341 340 341 342 341 341 341 339 338 338 338 339 339 338 338 338 338 338 337 336 335 333 331 330 330 330 330 330 322 314 316 325 325 323 322 321 319 318 317 316 317 316 316 317 317 316 314 312 309 304 302 305 308 310 308 309 309 309 308
313 315 316 317 318 320 326 328 327 325 327 330 333 334 335 339 342 344 344 345 344 342 341 340 339 339 340 341 340 340 339 339 338 338 338 338 337 339 338 338 338 338 337 337 337 335 333 331 330 329 329 328 329 327 307 303 304 308 321 323 322 320 319 318 316 316 315 315 316 315 316 314 313 310 309 300 300 300 300 301 303 305 309 312 310
314 314 315 316 317 320 323 327 327 327 327 329 331 333 334 337 343 344 344 344 343 342 340 340 340 340 339 339 339 339 338 338 338 338 337 337 337 338 338 339 338 336 336 337 335 334 333 332 330 330 329 328 329 312 301 301 301 302 310 323 322 320 319 317 316 315 315 315 315 314 315 314 312 311 311 308 304 298 296 297 297 298 299 296 295
314 314 314 315 318 321 322 326 328 326 326 328 331 332 335 339 342 344 344 343 342 342 340 339 339 339 339 341 339 338 337 337 337 337 336 336 336 336 337 338 337 337 337 336 334 334 331 329 328 328 328 327 329 301 300 299 300 300 302 313 321 321 318 317 316 315 314 314 314 313 313 313 311 311 309 308 308 306 299 295 297 296 295 295 293
316 316 315 317 322 324 324 327 330 327 327 329 331 332 335 340 343 344 343 343 342 341 340 339 339 339 339 340 338 336 336 336 336 336 335 335 335 336 337 338 337 335 334 334 333 332 329 327 327 327 326 326 326 302 298 298 299 299 299 304 322 320 318 316 315 315 315 314 314 313 313 312 312 311 310 310 309 308 306 306 306 307 307 304 293
318 318 317 318 323 325 326 329 331 328 328 328 329 334 338 340 340 341 343 341 341 340 338 338 338 339 339 338 337 337 336 336 335 335 334 335 335 336 336 335 334 333 333 332 332 331 329 328 327 327 326 326 326 298 298 297 297 297 298 301 321 319 317 317 316 315 315 315 314 314 314 312 314 311 310 309 310 308 308 307 307 307 307 308 306
318 318 317 319 323 326 329 333 334 329 327 327 330 335 339 340 342 341 340 340 339 338 338 338 338 339 339 338 338 337 336 334 333 333 333 334 335 336 336 337 335 334 334 333 331 331 328 327 326 324 325 324 323 296 297 296 296 297 297 314 319 318 316 315 315 315 315 315 315 314 313 313 315 311 306 300 304 309 309 309 307 308 308 308 308
319 319 319 323 326 329 333 334 333 331 328 329 332 336 338 339 339 337 337 337 337 337 337 338 337 338 337 337 338 338 335 333 332 332 332 333 334 334 335 335 334 333 332 332 331 329 328 325 323 323 324 324 319 299 296 296 295 295 300 315 318 317 315 315 314 314 314 314 314 313 312 313 313 312 303 296 297 303 310 309 308 308 308 308 307
319 320 322 324 325 329 334 334 333 332 331 332 335 338 339 338 337 336 336 336 336 335 336 337 337 338 338 337 337 336 333 332 332 331 332 333 334 335 335 335 332 332 331 331 330 328 326 325 323 323 325 325 320 303 295 295 295 294 304 315 317 315 314 314 314 314 314 313 313 311 313 316 314 312 296 295 295 304 310 308 308 307 307 307 307
320 321 321 321 322 327 333 333 333 332 333 335 337 337 335 334 334 334 335 335 335 336 336 336 337 339 339 337 337 336 334 333 332 332 333 332 332 333 334 335 333 332 332 332 330 327 324 324 325 325 318 324 323 306 294 295 294 294 304 315 316 314 313 314 312 312 313 313 313 312 310 309 310 308 293 294 294 301 308 309 308 308 306 306 306
322 322 322 321 320 326 332 332 332 333 335 335 335 334 333 333 333 334 334 334 335 336 337 338 338 339 339 338 337 335 335 334 333 333 333 332 333 334 335 334 333 332 332 332 330 328 324 323 323 323 324 325 324 312 300 294 295 295 299 314 317 313 312 312 312 311 311 312 313 314 308 297 296 293 293 292 293 295 306 309 309 308 307 306 308
320 319 313 319 322 328 332 333 334 334 335 335 334 334 333 333 333 333 333 334 336 337 337 339 339 338 338 337 336 336 335 334 334 333 333 332 334 334 336 334 332 332 332 331 329 328 327 326 324 322 323 325 322 312 302 293 294 295 297 303 316 314 314 312 311 311 311 310 311 311 311 300 293 293 292 291 292 293 297 309 310 308 309 310 304
317 315 317 321 323 329 331 334 335 335 335 336 335 333 332 333 333 332 334 336 337 338 339 338 338 337 337 336 335 335 335 334 334 334 333 332 334 336 336 334 333 332 331 330 330 326 326 325 322 320 320 320 317 308 304 294 294 294 296 297 313 314 313 313 311 311 309 309 310 310 311 301 292 292 292 291 291 292 292 306 309 299 293 294 305
317 318 319 320 323 327 331 334 336 336 336 336 335 333 333 333 332 335 337 338 338 338 338 338 337 337 337 337 337 336 335 336 335 335 335 333 334 335 335 335 333 332 328 325 324 322 322 324 321 319 319 319 317 309 299 298 294 294 295 296 298 309 300 314 312 309 308 308 310 311 311 297 293 292 292 291 291 291 293 302 296 293 292 294 299
319 320 321 321 324 324 325 329 334 336 337 337 336 333 333 333 334 336 337 337 337 338 338 337 337 337 337 337 337 337 337 337 336 335 335 335 335 335 334 333 333 331 327 323 322 320 320 319 317 317 317 316 313 309 299 297 296 293 294 295 295 298 299 311 312 311 310 308 310 312 308 293 293 292 291 291 291 291 299 294 292 291 291 294 303
319 320 320 323 324 324 325 322 328 333 337 336 337 334 333 333 335 337 337 337 337 337 337 336 336 337 337 337 337 336 337 337 337 335 333 333 334 334 331 330 330 330 326 323 321 319 318 316 315 316 314 312 310 307 303 298 294 293 294 294 294 294 296 299 311 311 312 312 305 299 294 292 292 291 291 290 291 290 291 291 291 290 296 302 301
320 319 319 322 325 325 327 325 325 328 331 334 337 336 333 334 337 336 337 338 337 337 336 336 336 337 337 337 336 336 335 337 337 335 333 333 332 329 328 328 327 326 324 322 320 319 317 316 312 313 311 310 308 306 303 301 296 296 295 294 293 294 296 298 304 307 301 300 297 294 292 292 292 293 298 300 302 300 291 290 289 293 302 300 301
317 318 318 321 321 323 323 325 324 325 327 330 331 332 333 334 335 337 337 337 336 335 334 336 336 336 336 336 336 335 335 334 334 333 332 330 329 328 326 322 322 322 320 319 319 317 316 316 313 312 311 309 307 305 303 301 300 299 301 300 299 301 296 295 304 308 303 307 302 302 301 296 297 293 295 296 298 297 296 296 297 299 300 299 301
318 319 320 320 319 319 321 322 323 325 327 328 329 330 331 333 334 335 335 335 333 333 333 333 334 333 332 333 333 315 324 330 330 330 328 327 326 326 324 322 322 322 320 319 318 316 317 318 316 314 311 307 305 305 303 300 300 301 302 303 304 306 305 306 307 308 310 311 307 297 297 302 302 300 302 304 304 305 303 300 301 301 300 299 298
317 318 318 319 320 321 321 322 322 325 325 325 326 327 330 331 332 334 334 333 331 327 330 332 332 333 331 331 332 328 328 330 330 328 327 326 324 324 325 325 327 328 326 324 322 318 316 319 318 314 309 306 306 304 304 298 302 298 301 305 305 306 307 307 304 300 310 309 306 303 302 303 303 303 298 304 304 304 304 304 304 303 301 300 300
318 318 319 319 320 322 322 322 323 325 326 325 325 325 326 328 330 330 331 330 329 329 330 331 332 331 330 328 329 328 327 327 327 326 325 325 310 311 320 327 326 312 307 307 309 320 320 319 318 316 313 308 306 308 299 297 296 296 296 297 299 299 299 304 299 295 302 306 306 304 304 303 305 305 303 302 303 304 303 303 303 298 301 302 302
317 317 317 317 318 319 320 320 321 323 324 324 325 326 326 326 326 327 327 327 328 327 326 328 328 328 325 327 325 325 325 326 325 324 323 318 318 315 295 293 301 308 305 302 302 304 305 306 317 316 310 300 299 296 296 296 295 295 295 296 296 296 296 296 294 300 304 304 302 303 303 305 304 306 303 303 302 302 300 301 303 303 303 303 301
Wind_Speed
15 14 14 15 15 13 13 12 13 16 16 14 13 14 15 15 16 16 15 15 14 14 13 13 12 11 11 11 10 9 10 9 9 10 9 9 11 11 11 10 11 11 11 10 8 7 7 7 8 8 8 7 7 7 8 8 8 8 8 7 9 9 9 9 10 10 9 6 5 6 4 3 4 4 4 5 5 5 4 4 4 4 5 5 5
18 14 12 13 13 14 13 12 14 17 16 15 16 16 16 16 16 15 14 15 14 15 13 13 12 11 11 11 10 10 11 10 10 10 9 9 11 11 10 10 11 10 9 10 9 9 7 7 8 8 8 7 7 7 8 7 9 9 8 8 8 9 9 11 11 11 10 8 8 6 5 4 3 3 4 5 5 5 5 4 5 5 6 5 5
16 14 12 14 16 15 13 13 14 17 18 19 18 16 16 17 15 15 14 15 14 15 14 12 12 11 11 11 11 10 10 8 8 9 9 10 10 11 10 9 10 10 10 10 8 9 8 8 8 7 8 7 7 7 8 9 9 10 10 8 8 8 7 9 12 12 7 7 7 7 6 6 5 4 5 5 5 5 5 6 6 6 7 6 6
18 16 14 15 16 15 14 13 14 14 15 15 15 16 16 16 15 15 15 15 13 14 14 14 12 12 12 11 12 10 9 8 8 8 9 10 11 10 9 9 10 10 11 10 9 9 9 9 8 8 8 8 8 7 8 9 9 9 10 9 9 9 8 9 11 11 6 9 8 7 5 6 5 8 7 7 7 7 7 7 7 6 7 6 6
20 17 15 16 16 17 17 16 15 16 16 16 17 16 13 17 16 17 16 16 12 14 15 14 13 12 11 10 10 9 8 9 8 9 9 10 10 11 10 10 11 10 11 11 10 9 9 8 8 8 8 8 7 8 8 9 10 10 11 10 10 9 9 9 10 10 6 9 3 5 4 5 6 3 8 6 7 7 9 8 7 7 7 6 6
21 19 16 16 17 17 17 17 16 15 16 16 16 17 16 15 15 17 16 14 14 16 16 15 14 13 13 12 12 12 11 11 11 10 10 10 11 10 11 11 11 11 11 11 10 9 9 9 8 8 8 8 8 7 8 8 10 10 10 10 11 9 8 9 10 9 8 8 7 5 3 3 3 7 5 4 7 7 7 9 8 8 7 7 6
21 19 18 16 17 17 16 17 17 17 16 15 15 17 17 15 16 16 14 13 15 17 17 14 16 14 15 15 13 13 13 11 9 9 9 9 9 10 10 10 12 11 11 10 10 10 9 9 9 8 8 8 8 7 8 9 9 10 9 9 9 8 8 8 10 8 5 7 7 4 3 2 1 5 5 2 5 7 7 8 9 9 9 8 7
18 19 17 15 15 16 17 17 17 17 15 15 15 15 17 16 16 16 13 14 16 16 18 15 15 15 15 14 12 13 13 12 12 10 9 9 10 11 10 11 11 11 10 10 10 10 9 9 8 8 7 7 8 8 8 8 8 8 9 9 9 8 8 6 7 7 9 9 8 7 5 4 4 6 7 7 7 4 8 8 8 9 8 8 7
17 15 16 15 15 16 15 16 17 16 15 15 14 12 13 14 14 15 16 17 15 18 18 17 15 15 15 14 14 12 12 12 10 11 11 11 11 10 10 10 10 11 11 11 10 11 10 9 8 8 8 8 8 7 8 8 9 9 9 8 9 7 6 5 6 8 11 9 8 8 7 6 6 6 6 7 7 8 6 10 9 8 8 8 7
16 17 15 14 15 16 16 15 15 15 13 11 10 11 13 12 13 17 16 14 14 18 19 17 16 15 15 16 16 14 12 12 12 12 11 11 11 11 10 9 9 10 11 11 11 11 10 9 9 9 9 8 8 8 8 9 9 9 9 9 9 8 7 6 7 9 7 6 7 7 7 6 6 6 6 7 8 8 9 5 9 10 10 9 8
15 15 15 14 12 13 13 14 14 11 10 10 9 8 8 10 14 16 17 14 15 17 18 18 16 15 15 17 18 16 15 14 13 12 12 12 12 12 12 10 10 11 11 10 11 11 11 10 9 9 8 8 8 8 9 9 9 9 9 10 9 9 8 10 11 10 8 9 9 7 8 8 8 8 7 7 7 7 6 8 4 9 9 9 10
18 15 14 15 13 13 12 12 11 10 10 10 10 11 12 13 13 16 17 16 15 16 18 17 16 16 16 17 18 18 17 13 15 15 14 13 12 12 11 10 11 11 10 10 10 11 11 9 9 9 9 9 9 8 8 8 8 8 8 8 7 9 9 8 9 10 12 9 10 9 8 8 8 8 7 6 6 7 7 7 6 6 7 7 8
17 15 13 12 13 13 13 13 13 12 12 14 13 13 15 15 16 17 18 18 16 17 18 18 17 17 16 17 17 16 17 17 17 16 14 13 12 12 12 11 11 11 11 11 11 13 11 10 9 9 8 9 9 9 8 9 8 8 8 8 7 8 8 9 9 10 11 10 9 9 9 8 8 8 7 7 6 6 7 7 7 3 5 4 6
13 13 12 12 12 11 12 13 14 13 13 14 15 14 14 14 17 18 20 19 17 17 20 18 18 16 16 16 16 16 16 17 16 16 15 13 13 13 12 12 13 13 12 12 11 12 11 10 10 9 9 9 10 10 10 9 8 9 9 8 9 7 8 11 10 11 10 11 9 9 9 8 8 7 7 8 7 7 7 7 7 3 4 5 5
11 12 11 10 10 11 11 12 12 12 14 14 14 15 15 15 17 19 19 19 18 19 20 19 16 18 16 16 16 16 16 15 14 14 15 15 14 14 13 13 12 12 13 12 12 12 11 10 10 10 9 10 10 10 9 8 9 8 7 7 7 7 9 10 10 11 10 11 11 10 8 8 8 8 8 8 8 8 8 7 7 6 6 6 5
11 11 10 9 10 11 11 12 13 13 14 14 17 16 16 16 18 21 22 21 20 19 18 19 19 18 18 16 16 16 15 15 13 14 15 15 15 14 14 13 11 11 11 12 12 11 12 11 11 10 10 10 10 10 10 8 9 8 7 7 8 7 9 11 8 8 9 11 10 10 9 9 8 9 9 8 9 8 7 7 7 7 7 7 7
12 11 9 9 9 11 12 14 14 15 15 16 18 18 18 18 19 21 21 19 19 19 18 18 19 18 20 18 16 16 17 17 16 17 15 13 14 14 14 14 13 11 11 11 12 12 11 11 11 10 11 11 11 11 10 9 8 7 7 8 9 8 8 9 8 8 7 9 9 11 10 8 8 8 9 9 8 9 7 7 7 8 7 7 6
13 12 11 12 12 12 12 13 16 17 18 18 19 18 18 18 19 20 20 21 20 19 18 17 20 20 19 20 18 16 16 17 17 17 15 14 15 15 13 12 13 12 11 10 11 12 11 12 10 10 10 11 11 10 10 10 9 8 9 9 8 8 8 8 8 8 9 8 8 9 9 9 8 8 8 8 9 8 7 8 7 7 7 8 6
14 15 14 13 12 12 12 13 15 18 19 18 18 18 17 18 17 17 20 21 20 17 16 16 19 15 14 18 20 18 15 15 16 16 15 17 18 17 14 13 12 12 12 12 12 12 12 11 11 10 10 11 11 10 10 10 9 9 9 9 9 9 9 9 9 9 9 8 9 10 9 9 8 7 7 6 6 6 7 7 7 7 7 7 7
14 15 14 14 13 13 13 13 15 16 18 17 18 17 19 17 16 16 16 16 17 18 19 20 19 16 16 17 17 18 18 17 17 18 16 16 17 16 14 14 13 13 12 13 12 13 13 12 11 11 11 11 11 11 10 9 8 9 9 8 9 9 9 10 9 9 8 9 9 9 9 8 7 6 6 6 6 6 6 7 7 6 6 6 5
13 14 14 14 13 13 13 12 13 14 14 15 16 18 17 15 16 17 18 19 20 19 18 17 15 16 16 17 19 19 20 18 18 18 16 16 15 15 15 12 13 14 12 12 12 13 13 13 13 12 12 12 12 10 9 9 9 9 8 9 9 9 10 8 8 8 7 8 8 9 8 8 6 7 6 6 6 6 6 6 5 5 6 6 6
10 10 12 12 11 12 12 12 12 13 14 15 15 15 16 16 15 16 16 17 20 19 18 17 17 17 19 18 19 17 18 17 19 17 16 16 15 15 15 14 13 13 12 12 13 12 12 13 13 13 13 13 13 12 11 10 10 10 9 7 8 9 10 9 8 9 9 7 8 9 9 8 7 7 6 6 6 6 6 6 6 6 6 5 5
7 7 8 9 10 11 12 14 14 14 14 14 14 14 15 17 17 17 17 18 19 19 18 16 16 15 17 18 17 17 19 20 18 16 18 17 15 15 15 16 14 12 12 12 13 13 13 13 14 13 13 13 13 12 11 10 10 11 10 9 8 9 10 9 9 9 9 8 9 9 8 7 6 7 6 6 4 5 5 6 6 5 5 5 5
6 6 6 7 9 10 11 14 14 14 14 15 13 14 14 15 16 16 17 19 19 17 17 17 17 17 17 18 18 17 20 20 18 18 18 17 16 14 14 15 15 12 13 12 12 13 13 13 14 13 14 13 13 12 11 11 11 11 10 10 10 10 9 9 9 9 9 9 10 9 8 8 8 8 7 6 5 5 5 4 5 4 5 5 5
7 7 8 9 10 11 12 13 14 14 14 13 14 14 14 15 15 15 16 17 17 15 16 17 17 18 18 19 19 18 18 21 20 17 18 17 16 14 13 16 15 15 13 13 12 13 13 14 12 13 15 14 12 12 12 11 10 10 10 9 10 10 10 10 9 9 9 9 10 10 9 9 9 8 7 7 6 7 6 5 6 6 6 6 5
7 8 9 11 11 11 12 13 13 15 14 14 14 15 15 15 16 16 15 15 16 15 16 16 16 17 19 21 20 17 19 21 19 18 17 17 15 15 15 15 16 16 15 13 14 13 13 14 14 13 14 14 13 12 12 12 11 10 10 9 9 9 9 9 9 9 9 9 9 10 9 10 9 9 8 7 7 8 6 6 6 6 6 6 6
7 8 8 9 11 12 13 14 14 13 14 13 14 16 16 15 16 16 15 15 16 16 16 16 17 18 19 20 20 19 18 18 16 16 14 15 15 15 17 17 16 17 16 15 13 14 12 13 14 13 14 14 14 13 12 12 12 11 11 10 9 9 9 8 9 9 9 9 9 9 9 10 10 9 8 8 8 8 6 6 6 6 6 7 6
6 7 9 11 11 11 12 13 14 14 14 15 15 16 16 16 16 16 16 15 14 16 17 17 17 18 20 21 21 18 14 16 15 15 15 17 16 15 15 15 16 17 17 17 16 14 12 12 13 13 13 12 13 12 12 12 12 11 10 10 10 9 9 9 8 9 9 9 9 9 9 10 9 9 9 8 8 8 7 7 6 6 6 7 7
6 7 9 11 12 10 12 14 15 16 16 17 16 16 16 16 16 16 16 17 16 17 17 17 17 18 20 19 17 13 13 14 14 15 16 16 16 14 14 15 15 15 14 16 16 14 13 13 12 12 12 12 12 11 11 11 11 12 11 11 11 10 10 9 9 9 9 9 9 9 9 9 9 7 8 7 5 4 7 7 6 6 7 7 6
7 8 9 9 11 12 11 12 15 18 19 18 17 17 17 17 16 16 16 17 17 17 17 17 18 19 19 18 17 12 12 13 14 16 18 18 16 17 16 16 17 16 15 15 16 14 13 13 13 12 12 11 10 9 10 14 12 11 11 10 10 10 10 10 10 10 10 10 10 8 8 7 8 8 8 9 9 6 3 3 7 7 7 7 6
7 9 10 11 12 13 12 13 16 18 20 19 17 16 16 17 17 17 18 18 18 17 17 18 19 19 18 18 16 12 13 14 17 18 15 17 19 14 16 17 15 14 15 16 16 15 13 13 14 13 13 12 10 8 14 14 13 12 11 10 10 10 11 10 10 10 10 10 10 9 8 9 9 8 8 10 9 8 5 4 5 5 4 2 7
10 11 11 12 13 14 14 14 15 17 19 19 17 17 17 18 18 18 17 17 18 18 18 18 19 17 17 17 13 14 16 16 16 18 18 18 17 17 18 17 15 15 14 15 16 15 13 13 12 13 13 11 11 13 18 16 14 14 11 10 10 10 10 10 10 11 10 10 10 10 9 8 9 11 10 9 8 8 6 5 6 3 0 4 6
11 12 12 13 15 15 15 14 14 15 17 20 19 18 18 18 18 17 16 18 18 18 18 17 17 17 19 17 15 14 16 16 17 16 15 16 18 18 17 17 16 15 14 15 17 14 13 12 12 14 13 11 8 15 18 17 15 15 13 10 10 10 10 11 11 11 11 11 10 10 9 8 9 12 11 11 10 8 5 5 6 4 2 1 5
10 10 12 15 14 13 13 13 14 16 17 18 19 19 18 17 17 16 17 17 17 17 16 17 17 17 19 19 19 17 16 17 17 16 17 18 18 18 16 14 11 13 15 15 16 14 13 13 13 12 11 10 9 15 18 19 17 17 14 11 9 11 10 11 11 11 10 11 11 11 10 10 10 12 11 12 11 11 9 7 6 6 6 5 2
11 12 13 16 17 16 15 15 14 14 15 15 17 16 15 15 15 16 15 16 16 16 15 16 17 17 17 16 18 19 18 17 18 16 16 18 16 15 16 14 14 15 15 15 15 14 12 12 13 11 10 10 8 18 18 19 17 16 15 12 9 9 9 10 11 11 11 11 11 11 11 11 11 12 11 13 12 12 11 9 9 8 7 8 7
12 13 15 17 17 16 15 14 12 12 14 16 17 16 16 16 17 17 16 16 16 16 16 17 17 18 19 19 19 18 15 16 17 16 17 18 17 13 12 12 12 14 13 13 13 12 12 12 11 11 9 11 8 20 19 19 18 17 17 11 10 10 10 10 11 11 11 10 11 11 11 11 11 13 12 14 13 11 11 10 9 9 8 7 8
12 13 16 16 17 17 15 13 12 12 13 15 15 16 16 16 16 15 16 16 17 18 18 19 19 19 18 17 18 15 15 17 17 17 16 16 15 11 14 13 13 14 14 14 14 12 11 11 11 11 11 11 9 17 20 21 19 19 15 12 10 10 10 10 10 10 11 10 11 12 11 11 11 11 13 14 11 9 11 10 9 9 8 8 8
13 14 14 15 15 16 13 11 12 12 13 13 14 15 16 16 16 15 16 17 19 20 20 19 19 18 16 17 16 16 18 18 17 18 18 15 14 14 16 14 15 15 15 15 13 11 10 11 13 13 14 14 10 15 21 20 20 20 17 14 11 11 11 10 10 10 10 10 11 12 12 11 11 10 17 14 13 10 9 10 10 10 9 9 8
13 14 16 16 16 18 14 9 11 12 13 14 15 16 16 16 16 17 18 20 20 20 19 20 20 19 17 17 18 20 19 18 18 19 18 15 14 14 16 15 15 15 15 14 13 13 11 10 13 15 16 16 11 15 21 21 20 21 16 12 11 11 11 11 10 10 10 9 10 9 10 10 11 11 18 15 14 13 10 9 10 10 9 10 9
15 15 12 14 17 18 12 8 10 12 13 15 16 16 15 15 16 17 18 19 19 18 18 18 17 16 17 17 17 19 18 19 19 17 15 14 13 15 18 17 16 14 14 14 14 14 13 12 12 13 10 14 10 11 16 20 21 21 20 12 11 11 11 12 11 11 11 10 10 10 11 9 10 15 16 16 15 14 11 9 9 9 9 9 8
14 13 13 13 15 14 9 9 8 10 12 13 13 14 15 14 15 16 18 18 17 15 15 16 16 15 15 16 17 18 19 18 17 16 12 13 13 18 17 14 14 14 13 13 15 14 14 13 10 12 11 13 9 12 15 19 20 21 22 16 11 12 12 11 12 11 11 10 10 10 11 11 12 14 15 16 15 16 12 9 9 9 8 3 5
10 11 12 11 14 8 8 7 8 10 11 11 12 12 13 13 13 15 14 14 15 14 14 16 17 18 18 17 18 17 18 16 14 15 17 16 15 15 14 16 14 14 14 12 12 13 13 14 9 8 6 9 10 15 14 20 22 21 22 18 10 12 11 12 11 10 10 9 9 9 9 13 14 14 15 15 15 15 14 9 9 6 11 7 6
12 14 11 10 8 6 2 3 8 10 9 11 12 13 12 12 13 13 12 12 13 14 15 16 16 17 17 17 16 17 17 15 17 20 20 21 20 18 15 15 17 16 14 15 15 14 12 11 11 9 8 9 9 11 18 17 21 21 22 19 13 8 9 10 10 10 9 8 8 9 8 17 15 15 14 15 14 15 10 10 5 6 8 5 4
11 9 10 13 6 8 7 4 4 7 10 10 12 11 12 12 12 11 10 11 12 13 14 15 14 15 16 17 17 17 18 17 19 19 20 20 19 19 17 17 17 18 16 15 14 10 8 9 10 9 9 7 7 7 14 19 18 22 21 20 12 10 12 8 7 6 5 5 6 8 9 17 16 15 15 14 14 12 9 12 7 5 8 6 7
7 10 12 12 11 8 5 2 4 3 3 8 9 10 11 10 10 10 10 11 11 12 12 12 13 13 13 14 14 15 14 15 14 17 17 16 14 14 14 15 15 16 14 13 12 13 10 9 7 9 8 8 7 6 8 13 20 21 21 19 13 12 11 11 8 7 7 4 7 8 16 17 16 15 15 14 11 11 11 9 11 8 7 7 8
9 12 13 15 13 7 5 7 9 8 6 6 6 8 10 8 8 9 9 10 10 10 10 11 11 11 12 13 12 11 12 13 12 13 13 12 8 10 12 11 12 12 10 10 10 11 11 8 5 7 7 7 8 7 7 7 10 15 15 16 12 12 12 10 8 7 8 12 13 14 16 16 15 13 10 8 8 9 12 8 7 9 8 8 9
14 15 14 12 11 8 8 6 8 6 6 8 9 8 7 6 6 6 6 7 8 8 8 9 9 8 7 11 12 9 6 6 5 5 5 5 7 8 8 7 9 9 9 9 9 11 11 10 8 9 8 8 8 8 8 8 8 10 10 10 10 9 11 9 7 10 8 6 9 9 9 11 9 14 11 10 10 10 9 7 7 9 9 9 9
14 14 11 9 7 7 7 8 9 8 7 7 7 7 7 5 4 3 3 4 6 6 6 6 6 6 6 8 8 6 7 7 8 9 8 7 9 11 12 12 13 13 13 12 12 11 13 13 12 10 9 8 8 9 9 11 10 11 11 12 12 11 11 11 12 11 11 8 8 9 10 8 8 8 8 8 9 8 9 9 9 9 9 10 10
13 10 8 6 7 8 8 10 10 10 10 8 8 7 6 5 4 2 2 4 5 5 4 6 6 6 6 7 8 7 9 10 10 10 9 8 10 11 12 13 14 13 14 14 14 12 11 12 10 10 11 11 9 10 12 14 17 18 16 13 13 13 12 12 13 12 10 9 8 8 8 9 9 9 7 9 9 9 9 9 10 9 9 10 10
11 10 10 10 10 11 11 12 11 10 10 11 11 11 10 9 7 4 2 3 4 4 5 5 5 6 6 6 7 7 8 8 8 9 9 8 4 7 10 14 15 14 12 6 6 11 14 13 11 10 12 15 14 12 16 20 16 17 17 18 16 15 14 13 13 14 10 8 9 9 10 9 10 10 10 9 10 9 9 9 10 11 11 11 11
11 12 13 13 13 13 14 14 13 12 12 12 11 11 10 9 7 6 5 5 3 2 1 3 3 3 3 6 7 6 7 7 8 8 8 8 7 3 12 11 8 9 10 9 7 4 5 5 9 10 11 12 12 18 22 21 20 20 20 19 17 16 16 15 18 14 10 7 8 8 9 11 11 11 10 10 9 9 8 8 10 11 11 11 10
Wind_Direction
217 208 191 186 186 181 180 178 182 189 193 184 173 175 178 179 179 185 183 176 167 172 181 187 188 188 192 192 190 191 205 204 207 205 194 194 187 186 182 186 184 185 192 185 193 185 186 181 179 183 186 192 198 203 197 186 180 181 174 179 170 157 163 173 168 159 139 135 125 133 138 128 122 160 166 156 166 155 155 169 152 161 156 160 168
224 213 189 175 181 181 174 175 177 182 191 191 192 187 187 188 181 180 183 182 174 170 177 190 194 192 187 192 193 191 201 203 205 202 194 190 188 188 186 188 186 186 192 189 192 187 188 185 189 183 188 192 197 202 199 187 182 181 175 173 178 166 165 173 167 164 177 172 165 161 152 156 152 187 191 178 171 170 163 175 167 185 167 173 161
220 208 178 185 185 183 180 179 182 187 184 189 190 188 189 195 188 176 187 187 181 170 171 186 191 188 189 190 195 196 201 203 204 194 187 188 187 190 191 190 188 189 192 192 194 195 191 189 192 190 191 191 194 197 189 183 187 186 182 185 177 171 161 168 169 190 179 175 170 159 170 176 167 198 217 202 198 175 184 189 179 195 177 177 173
221 206 196 192 191 189 188 187 185 184 186 186 185 188 193 196 185 180 187 189 182 177 170 177 184 182 188 190 198 201 196 196 205 185 183 186 186 192 194 192 192 195 194 191 200 200 199 199 193 192 193 197 193 188 186 188 189 192 191 191 185 176 179 176 182 201 205 169 178 208 169 209 197 195 190 196 200 192 203 202 192 197 181 183 174
224 214 196 194 192 192 192 190 182 186 188 186 185 187 187 193 185 182 186 187 181 177 173 163 171 180 184 184 189 195 192 192 193 183 184 186 187 192 198 194 196 200 194 194 200 200 201 202 197 193 196 197 195 192 191 193 194 196 195 192 191 188 175 171 183 197 214 189 203 189 143 217 258 117 169 179 194 203 206 215 192 214 187 189 199
229 223 205 192 192 192 192 188 186 186 190 187 186 189 185 188 184 181 188 181 183 182 174 165 170 181 181 182 185 191 194 191 194 186 181 187 194 189 197 197 201 203 201 196 199 198 201 204 200 195 197 197 196 197 194 194 197 199 193 195 197 200 190 168 182 189 209 213 257 248 294 310 304 133 175 185 184 219 213 211 202 208 211 190 213
230 230 221 197 194 193 190 188 186 187 193 186 188 190 189 184 180 177 180 181 185 185 178 170 170 184 189 191 195 199 202 200 194 186 183 186 190 191 196 201 205 204 206 198 201 200 202 204 200 202 198 199 195 197 199 197 198 199 191 199 200 194 191 198 189 186 197 228 224 240 253 249 326 149 224 192 182 195 225 208 211 205 207 211 205
228 229 226 210 195 193 193 192 189 191 185 184 188 188 186 182 176 177 180 183 187 178 185 180 172 179 187 195 200 206 207 202 193 187 188 186 189 195 200 202 208 206 204 204 205 202 203 203 201 205 202 199 198 198 200 196 202 197 195 199 201 195 192 192 177 174 199 210 212 218 223 228 232 226 263 274 281 197 194 212 211 211 208 210 220
227 227 223 210 199 197 200 196 194 189 185 187 185 181 187 182 174 177 184 189 180 178 186 183 178 174 183 194 202 208 207 204 190 195 195 196 192 197 203 202 207 210 206 205 207 205 201 202 200 202 203 201 200 200 199 198 202 193 187 194 192 183 176 136 184 209 211 219 188 213 222 224 222 226 237 247 256 268 242 177 201 192 214 208 214
231 231 227 217 207 199 199 199 191 188 188 180 173 178 182 166 171 187 183 184 180 181 188 185 183 176 181 194 202 200 198 202 198 189 190 187 193 192 195 198 202 207 208 206 208 208 203 199 202 201 202 201 202 203 194 196 196 193 189 191 192 166 121 166 221 231 214 213 212 206 207 215 230 222 220 231 245 256 284 211 187 191 199 205 200
229 229 229 227 219 209 197 197 188 175 164 156 148 144 162 171 184 186 188 188 185 184 184 184 185 186 184 187 198 198 194 198 198 190 190 185 194 194 196 195 202 206 208 204 207 208 204 200 202 201 199 199 203 201 196 195 194 196 198 199 188 172 173 188 213 223 218 221 224 215 211 221 226 229 226 231 241 247 236 268 246 196 213 196 195
229 229 227 226 220 209 197 194 180 171 166 178 173 171 180 188 189 188 191 194 191 188 186 185 187 189 188 187 194 202 199 198 199 193 190 192 188 190 194 197 201 206 206 207 204 209 206 201 201 203 198 197 198 200 196 196 193 192 195 193 190 188 191 192 212 226 228 230 226 226 227 235 233 239 233 237 232 240 248 257 256 222 212 199 180
227 233 228 220 218 208 197 194 185 173 180 184 183 183 187 191 194 192 197 197 194 193 190 187 187 189 185 183 187 197 201 202 204 200 191 196 197 198 190 195 197 204 205 206 205 208 207 204 202 202 197 195 196 198 195 196 186 188 193 194 197 194 199 205 213 215 226 230 231 233 236 232 237 235 245 247 237 243 258 259 258 233 210 209 153
223 228 230 222 218 209 202 194 189 183 181 183 187 185 185 190 194 195 199 197 194 195 200 194 193 191 188 183 184 193 198 201 207 208 202 199 200 203 194 201 202 204 203 206 205 206 205 205 206 202 198 193 196 198 197 195 181 193 193 199 203 205 214 220 225 225 228 231 235 240 234 237 241 245 240 235 235 238 244 247 252 211 227 222 169
224 225 223 222 222 217 206 200 193 187 189 189 190 190 185 189 195 199 201 199 196 197 201 198 199 202 194 187 184 188 197 199 205 211 204 202 204 205 203 202 204 201 204 204 202 200 205 205 203 203 198 196 193 195 190 182 189 196 201 207 210 214 220 227 228 228 232 233 233 234 235 234 237 234 240 236 232 235 238 241 239 214 207 230 202
226 225 225 215 214 221 212 203 194 191 192 195 196 192 190 192 196 200 201 198 196 194 196 200 203 204 200 189 188 186 191 198 201 205 208 205 202 200 201 199 197 194 196 196 197 197 202 204 201 202 198 194 194 192 184 189 187 193 201 205 217 215 220 224 231 234 237 235 234 233 236 237 230 233 233 230 242 242 237 240 234 228 225 211 206
223 224 228 226 221 219 214 205 196 191 192 196 198 197 196 194 199 202 203 201 199 196 195 200 205 205 205 196 187 187 187 193 200 199 198 186 197 201 198 196 196 197 199 194 190 196 204 201 199 196 196 196 194 190 187 187 181 187 204 214 218 214 223 229 230 230 219 229 229 228 231 232 233 230 230 234 231 239 241 238 231 226 229 242 207
229 232 234 236 234 228 219 209 199 193 193 193 192 195 196 194 198 199 200 201 199 195 196 198 204 204 204 203 200 194 189 188 197 199 193 190 200 204 198 198 206 204 201 198 188 192 202 199 197 194 193 194 193 192 192 188 183 195 209 214 218 218 222 224 225 222 226 222 226 225 223 227 229 224 228 231 231 234 237 237 232 229 230 237 242
231 233 237 237 230 229 226 218 206 199 194 192 189 189 193 197 198 198 198 201 196 194 197 201 203 204 207 209 205 201 197 189 195 200 193 197 201 204 198 192 198 201 198 194 186 194 196 194 196 192 191 191 192 194 192 192 187 203 206 216 215 210 216 220 218 220 221 219 218 220 219 224 220 220 226 211 221 223 227 231 228 231 229 236 253
228 228 235 236 232 229 227 222 216 205 200 194 193 195 199 196 194 200 203 200 200 193 199 202 202 204 207 206 203 205 203 197 192 198 194 197 201 204 194 187 191 199 197 189 186 196 197 193 194 193 191 191 190 189 186 185 187 204 203 210 208 206 210 215 216 211 213 214 214 214 212 214 202 208 204 207 208 214 219 223 221 220 230 239 241
224 228 230 233 231 226 227 227 228 220 207 195 191 194 197 193 196 198 197 196 203 194 194 198 195 204 199 204 205 204 204 203 198 197 197 199 201 201 199 186 186 198 191 189 192 198 197 200 197 195 193 192 191 183 185 185 187 193 198 204 201 200 207 207 207 195 197 206 209 213 207 206 194 207 200 193 205 201 203 224 227 220 230 218 227
227 227 228 230 227 221 224 226 228 227 218 205 196 193 191 192 194 197 198 198 199 197 192 195 199 204 201 202 205 202 200 199 198 194 198 200 200 201 199 195 186 182 180 184 192 196 199 199 200 197 198 197 196 187 182 187 190 191 193 190 195 203 206 207 200 200 197 199 203 212 205 192 190 202 196 203 199 200 203 213 212 224 221 221 212
224 222 228 235 237 231 226 225 224 225 224 215 203 196 195 192 190 194 195 196 193 195 195 194 196 194 199 204 203 201 202 201 192 193 200 199 198 198 197 197 195 179 181 187 193 195 196 197 198 198 199 201 199 191 186 187 192 191 190 188 197 204 205 205 199 204 198 192 197 203 198 179 177 191 191 211 197 207 213 214 210 204 219 205 198
227 226 231 238 243 240 236 229 224 222 220 217 208 201 197 194 194 193 195 196 196 195 194 193 195 196 199 203 203 204 204 201 196 199 198 197 197 194 193 195 197 184 180 185 190 190 190 192 195 194 200 198 196 194 185 192 193 193 194 194 197 202 205 206 205 203 197 191 195 194 191 179 178 189 193 197 195 201 205 204 187 185 194 185 188
242 239 234 231 232 232 231 230 228 224 219 213 212 205 200 197 195 196 196 195 194 191 190 193 197 198 201 205 203 204 205 203 201 199 196 194 195 188 190 195 196 197 186 180 185 189 189 191 192 192 200 199 192 187 186 189 190 193 197 197 198 201 203 205 204 201 195 192 192 193 187 182 185 193 190 197 189 184 194 183 185 184 184 174 170
256 249 238 232 230 228 228 228 227 223 218 211 209 208 204 198 197 196 195 193 192 189 190 193 192 198 204 206 203 198 204 204 200 198 191 191 194 188 185 193 195 195 194 185 184 185 190 193 193 193 199 198 194 190 187 187 188 188 195 196 197 200 200 201 198 198 191 193 191 193 187 187 187 194 189 189 176 180 184 184 185 184 167 156 158
255 254 252 243 231 226 221 221 226 224 215 209 206 207 206 202 198 197 198 194 191 188 189 193 193 200 207 206 204 200 202 203 197 194 186 189 192 187 188 194 195 195 197 198 187 185 187 196 195 194 198 201 200 195 190 187 188 189 192 191 194 194 195 199 195 194 191 191 191 193 187 189 191 191 186 178 174 178 181 180 171 164 155 153 157
256 255 257 255 247 230 219 219 220 223 216 210 205 205 204 201 199 198 196 192 187 188 189 193 197 204 210 209 208 201 195 199 195 192 188 190 191 189 191 195 194 194 196 198 195 186 184 193 195 194 198 194 200 192 190 187 188 187 187 189 190 191 193 190 192 193 189 189 192 191 188 190 191 188 183 179 178 178 175 172 165 162 156 166 180
262 273 269 259 253 241 220 211 211 215 215 210 208 205 204 202 200 198 194 191 185 187 189 192 196 204 209 209 202 191 189 194 191 189 187 188 191 182 187 194 195 193 195 199 196 187 180 188 189 188 188 188 191 191 190 186 186 185 184 187 188 190 191 188 187 189 185 188 190 189 189 189 189 173 170 176 159 156 174 166 158 164 172 184 187
278 287 287 285 276 258 237 218 211 210 211 210 208 207 202 200 198 195 192 189 189 187 187 190 197 204 206 204 201 183 178 192 187 190 190 189 187 187 189 195 194 193 195 199 195 191 180 181 183 181 187 185 189 192 177 177 183 180 182 185 186 189 190 188 187 184 185 188 188 185 186 163 126 120 121 109 108 109 55 148 171 178 184 186 187
279 290 288 291 292 277 252 229 216 211 210 210 208 205 203 199 196 192 191 189 188 187 188 193 199 203 202 200 195 176 182 191 193 189 184 189 188 184 189 194 193 191 195 198 197 191 181 181 183 183 184 185 187 180 150 167 167 171 180 184 184 186 187 188 187 185 183 184 185 183 174 141 145 141 137 134 132 126 99 72 68 35 11 194 189
285 290 291 296 297 287 263 240 225 216 211 210 209 205 201 200 195 193 190 188 187 187 188 193 199 197 197 189 177 175 189 195 194 192 189 188 184 187 192 196 190 193 196 197 197 190 180 179 182 185 187 187 187 146 159 164 165 166 185 185 185 185 186 187 188 186 185 183 182 182 179 170 185 184 170 154 138 111 106 112 113 110 328 11 11
296 295 295 298 296 288 272 250 234 223 216 211 207 203 202 200 196 192 188 188 185 186 188 193 196 198 197 189 174 183 189 191 192 187 185 182 186 190 193 197 194 194 195 196 198 188 174 175 179 186 187 183 191 149 162 164 166 172 182 197 187 189 186 187 188 189 188 184 182 180 177 174 176 165 174 175 166 145 112 110 110 137 116 336 340
309 301 300 303 299 291 278 260 237 228 220 213 206 204 202 197 194 192 190 185 183 184 186 190 195 193 193 191 185 186 190 191 191 186 184 185 188 195 197 199 189 192 196 198 197 185 173 178 183 185 182 182 185 154 163 168 171 175 178 198 196 187 190 188 188 189 188 187 183 180 177 176 170 173 185 179 172 168 168 164 176 195 198 169 170
307 303 301 300 297 289 277 265 249 230 223 214 210 206 199 196 193 189 184 183 185 183 186 190 191 190 189 184 184 188 189 187 185 183 184 185 187 193 192 190 193 195 197 201 198 187 180 181 181 182 183 187 172 158 167 172 172 173 177 200 200 187 190 189 189 190 190 188 184 184 182 177 174 177 186 180 172 173 177 181 189 194 196 192 199
308 305 298 296 296 291 280 264 244 231 221 213 204 196 193 191 187 185 184 185 187 186 186 188 190 190 189 187 189 189 183 180 180 180 182 186 188 188 184 187 193 199 201 201 201 192 176 177 177 176 179 191 158 165 168 172 171 173 174 193 198 188 193 188 189 190 190 190 187 187 185 183 177 182 162 159 174 175 180 185 191 191 193 190 198
301 296 293 295 294 287 273 254 240 226 217 210 201 191 189 185 184 182 180 185 189 190 187 186 191 192 189 184 189 181 177 176 175 176 180 188 190 180 192 195 198 199 198 199 201 194 183 178 173 177 181 189 161 174 170 172 170 169 171 194 193 190 190 191 188 188 191 190 191 189 191 186 178 178 146 166 171 190 182 190 190 190 191 191 194
306 304 299 300 304 297 278 251 232 220 212 202 193 184 181 179 176 176 178 184 189 190 188 189 192 188 177 184 181 178 176 174 171 176 179 182 180 188 194 194 200 201 202 200 198 198 186 179 180 185 186 190 170 172 174 171 167 168 178 189 190 190 186 187 186 187 192 191 192 192 190 184 180 172 152 167 163 184 194 192 193 190 190 195 195
306 311 311 312 305 296 284 236 222 210 201 195 187 181 180 178 178 178 185 190 191 191 191 191 190 186 177 178 181 180 177 174 176 180 181 175 177 186 193 192 199 201 202 199 198 199 189 175 185 192 185 187 172 170 175 169 168 172 181 194 189 189 182 185 185 184 191 192 185 177 188 196 192 146 156 164 171 186 205 198 196 196 197 199 199
319 317 314 307 297 288 263 226 209 200 191 187 184 183 180 175 178 181 187 193 193 191 190 189 184 177 180 181 181 181 181 182 182 181 176 172 177 188 195 195 198 200 200 200 197 205 194 186 185 192 183 193 172 156 174 169 169 174 185 195 188 186 185 184 189 183 186 192 184 184 184 200 148 140 160 166 175 192 206 199 198 203 203 203 196
315 319 323 304 289 279 249 188 188 186 180 180 179 178 178 179 181 185 191 194 192 188 185 178 180 178 179 180 184 182 182 183 181 177 169 176 182 195 196 193 201 205 203 201 200 206 205 200 185 189 187 188 166 152 164 170 174 178 188 207 189 192 186 184 186 183 188 186 184 186 186 171 146 154 160 172 176 193 219 214 202 209 210 177 183
340 322 301 291 283 266 225 179 165 168 171 169 170 171 175 175 181 185 189 192 189 182 177 177 180 184 183 183 183 183 182 181 174 173 181 186 189 190 191 196 201 202 206 205 200 203 205 202 193 181 176 181 157 151 159 177 177 181 189 210 212 191 191 184 181 184 185 184 184 180 190 157 156 160 169 173 181 191 206 231 213 197 86 110 191
323 313 307 291 296 336 194 184 155 154 158 161 162 164 168 170 183 188 183 183 186 186 185 185 184 183 182 183 182 180 182 185 186 188 186 191 194 195 190 193 203 198 193 195 195 195 194 195 193 178 179 181 159 152 161 171 177 180 190 205 229 196 151 173 175 169 178 172 186 191 156 147 166 165 170 177 182 192 193 216 238 116 124 134 199
305 307 314 304 342 20 17 314 136 152 150 153 156 155 160 167 178 179 179 181 183 186 187 187 187 190 189 190 188 186 188 190 191 192 197 199 199 201 200 200 201 198 192 193 197 183 172 178 177 172 167 152 143 148 165 171 173 181 190 200 207 167 159 166 152 148 156 188 173 199 156 158 165 171 173 179 186 184 197 205 216 146 137 164 211
336 335 344 351 28 27 104 226 309 90 153 143 143 144 151 166 161 166 175 181 186 188 188 189 188 193 194 193 192 190 191 197 190 194 200 203 198 196 199 200 202 199 196 193 192 192 187 180 173 168 158 145 141 139 151 174 174 180 188 196 193 168 165 144 148 150 148 156 223 179 136 161 167 171 175 176 181 190 208 193 194 154 162 205 212
26 9 6 5 22 26 19 54 30 28 46 80 104 135 149 157 154 161 167 171 177 184 188 192 193 192 191 187 182 182 196 201 192 195 199 202 196 198 201 201 205 202 194 191 187 189 191 183 163 168 153 149 146 136 143 154 173 181 187 193 177 168 171 166 165 152 181 201 182 144 153 154 163 167 167 178 191 189 204 203 163 170 202 212 208
32 23 14 18 15 16 26 42 68 55 34 45 62 70 87 111 137 151 156 164 173 178 183 189 180 184 189 192 187 193 182 179 164 162 175 171 191 195 190 182 185 188 186 190 191 190 189 185 175 170 159 153 155 143 146 151 163 172 186 181 178 180 174 166 173 178 180 151 122 138 146 158 157 169 180 176 192 165 170 175 189 198 212 211 207
41 36 25 28 27 7 18 36 55 60 56 55 67 84 91 98 114 141 145 159 165 160 159 190 198 175 182 202 205 138 157 181 186 189 187 179 185 187 189 191 194 193 195 197 197 192 195 192 194 178 152 151 155 161 160 166 173 176 179 180 185 180 178 186 189 189 194 172 140 115 121 145 143 158 188 186 199 195 195 187 197 197 206 210 211
45 42 39 43 57 68 69 62 57 56 59 58 53 54 66 74 66 57 117 110 105 113 161 188 199 193 183 192 197 170 190 194 190 187 188 178 182 193 203 207 206 197 198 192 195 191 190 195 183 163 168 178 170 176 188 177 181 180 172 172 179 182 182 188 190 178 169 149 143 153 167 166 174 179 186 200 197 203 200 193 193 200 202 203 204
52 56 52 46 41 51 61 66 69 71 73 69 61 52 46 45 49 37 41 134 141 169 197 207 211 204 181 195 202 187 194 193 190 187 187 189 206 202 203 206 209 209 212 225 220 194 189 184 173 170 173 174 192 190 157 170 177 172 178 183 181 176 177 179 161 151 160 169 172 179 181 184 184 188 191 197 197 195 194 193 197 201 207 206 207
44 53 48 45 40 38 41 46 45 44 47 52 57 57 56 52 47 41 37 29 41 88 158 216 235 247 220 198 201 201 198 200 193 188 187 179 175 105 35 21 323 208 190 184 181 187 176 201 178 162 168 166 148 136 154 173 178 183 179 181 178 176 175 166 149 150 173 181 187 190 191 189 192 194 193 195 194 198 199 201 201 196 206 209 210